Location: Unspecified
(0.0000°N, 0.0000°E)
Time: 17:10:20
(UTC+00:00)

A-11 Canister half - Visible Passes

Search period start: 01 July 2016 00:00
Search period end: 11 July 2016 00:00
Orbit: 1517 x 1683 km, 47.2° (Epoch: 30 June)

Date Brightness Start Highest point End Pass type
(mag) Time Alt. Az. Time Alt. Az. Time Alt. Az.
01 Jul 9.9 03:12:06 33° SE 03:12:06 33° SE 03:16:33 10° SE visible
01 Jul 10.1 05:10:28 14° WSW 05:12:18 15° SW 05:17:16 10° SSW visible
02 Jul 10.7 02:52:14 16° SE 02:52:14 16° SE 02:53:40 10° SE visible
02 Jul 10.1 04:50:34 17° SW 04:50:34 17° SW 04:54:55 10° S visible
03 Jul 10.4 04:30:14 15° SSW 04:30:14 15° SSW 04:32:29 10° S visible
04 Jul 10.7 04:09:36 11° S 04:09:36 11° S 04:09:59 10° S visible
